Showing default

LARES-2, 53105

Orbit data source: Space-Track

LARES-2, 53105 is a payload satellite owned by ASI (IT) that was launched on Wed, 13 Jul 2022 UTC via a VEGA C launch vehicle from the French Guiana (FRGUI). Payload-class satellites include a variety of spacecraft equipped with specific instruments for various scientific and technological missions. These include communications satellites like Starlink; space stations such as the ISS; scientific satellites like the Hubble; Earth observation satellites from companies like Planet Labs, Umbra, and HawkEye 360; GPS; miniature CubeSats for education and research; and military/defense satellites.

Loading next visibility...
Identifier
53105, 2022-080A
Orbit
Active
Last TLE update
3 days ago
Origin
Manufacturer
OHB-I
Mission
Operational Civil Technology
Bus & Motor
LARES, Unknown motor
Mass
295 kg wet, 295 kg dry
Launch date (UTC)
2022-07-13 (3 years ago)
Launch vehicle
VEGA C
Launch site
French Guiana (FRGUI)
Object type
Payload
Rocket body
Debris
Shape & HBR
Sphere, 0.42 m
Radar Cross Section
0.139 m², Medium (>0.1 m² and < 1m²)

Expand to show TLE details & history

TLE from 3 days ago
0 LARES-2
1 53105U 22080A   25187.10857456 -.00000016  00000-0  00000-0 0  9993
2 53105  70.1525  64.0022 0005027  50.5721 309.5500  6.38965187 69554
Epoch: 2025-07-06T02:36Z
TLE epoch observation values (Epoch: 2025-07-06T02:36:20.841Z)
Latitude
-0.00008°
Longitude
100.58333°
Altitude
5,886.659 km
Speed
5.702 km/s
True Right ascension
04h 16m 01s
True Declination
0° 00' 00"
Sunlit
Object was in daylight at epoch
Visualization orbit readout
Latitude
37.50772°
Longitude
115.42392°
Altitude
5,887.196 km
Speed
5.705 km/s
Apparent Right ascension
07h 14m 35s
Apparent Declination
23° 43' 04"
Sunlit
Object is in daylight
Visualization observer readout
Local Sidereal Time
01:50:30
Azimuth
76.516° E
Elevation
21.572°
Doppler factor
1
Orbital elements
Apogee altitude
5,894.202 km
Perigee altitude
5,881.869 km
Semi-major axis
12,266.173 km
Eccentricity
0.0005
Inclination
70.1525°
RAAN
64.0022°
Arg. of periapsis
50.5721°
True anomaly
Unknown
Mean anomaly
309.55°
Eccentric anomaly
Unknown
Mean motion
1.59764 °/min
Orbital period
225.33 mins
BSTAR
0
Loading maneuver chart data...
Loading SW <> Apogee altitude chart data...
Loading historical data...
Loading historical data...
Loading historical data...
Loading historical data...
Loading historical data...
Loading historical data...
Loading historical data...

LARES-2 Visibility forecast

Observer location: undefined°, undefined°

Span
Click to sort rows by Start time (UTC) header in descending order
Start Az.
Max El. time (UTC)
Max El. Az.
Max El.
End time (UTC)
End Az.
19 mins2025-07-09 13:39:59.035Z76.591° E2025-07-09 13:40:59.035Z74.195° E20.179°2025-07-09 13:58:59.035Z36.41° NE
63 mins2025-07-09 16:56:59.035Z202.025° SSW2025-07-09 17:27:59.035Z296.544° NW44.825°2025-07-09 17:59:59.035Z27.198° NE
57 mins2025-07-09 21:10:59.035Z288.284° WNW2025-07-09 21:38:59.035Z354.254° N29.56°2025-07-09 22:07:59.035Z61.281° ENE
63 mins2025-07-10 01:22:59.035Z332.263° NNW2025-07-10 01:53:59.035Z61.387° ENE43.503°2025-07-10 02:25:59.035Z146.961° SSE
46 mins2025-07-10 05:21:59.035Z327.189° NNW2025-07-10 05:43:59.035Z279.016° WNW26.721°2025-07-10 06:07:59.035Z226.666° WSW
|